Regional Weather Roundup
Issued by NWS

Home | Current Version | Previous Version | Graphics & Text | Print | Product List | Glossary On
Versions: 1 2 3 4 5 6 7 8 9 10 11 12 13 14 15 16 17 18 19 20 21 22 23 24 25 26 27 28 29 30 31 32 33 34 35 36 37 38 39 40 41 42 43 44 45 46 47 48 49 50
000
ASUS45 KBOI 241310
RWRID
WEATHER ROUNDUP FOR IDAHO
NATIONAL WEATHER SERVICE BOISE ID
700 AM MDT THU JUL 24 2014

NOTE: "FAIR" INDICATES FEW OR NO CLOUDS BELOW 12000 FEET
WITH NO SIGNIFICANT WEATHER AND/OR OBSTRUCTIONS TO VISIBILITY

IDZ012-014-241400-
SOUTHWEST IDAHO


CITY           SKY/WX    TMP DP  RH WIND       PRES   REMARKS
BOISE          CLEAR     58  45  62 NW8       30.14R
CALDWELL       CLEAR     57  39  51 NW9       30.17R
MOUNTAIN HOME  CLEAR     60  45  59 NW16      30.11R
$$

IDZ016-017-241400-
SOUTHCENTRAL IDAHO


CITY           SKY/WX    TMP DP  RH WIND       PRES   REMARKS
BURLEY         CLEAR     61  44  53 SW13      30.11R
JEROME         CLEAR     58  47  66 SW10      30.11R
TWIN FALLS     CLEAR     62  43  49 SW20      30.12R
$$

IDZ019>023-241400-
SOUTHEAST IDAHO


CITY           SKY/WX    TMP DP  RH WIND       PRES   REMARKS
IDAHO FALLS    CLEAR     66  40  38 SW20      30.06R
POCATELLO      PTCLDY    65  37  35 SW18      30.09R
REXBURG        PTCLDY    65  39  38 S13       30.05R
$$

IDZ006-010-011-018-031-032-241400-
CENTRAL IDAHO MOUNTAINS


CITY           SKY/WX    TMP DP  RH WIND       PRES   REMARKS
MCCALL         PTCLDY    48  43  82 SE3       30.12R
HAILEY         CLEAR     54  39  58 NW9       30.12S
STANLEY          N/A     40  33  76 CALM      30.19R
SALMON         CLEAR     50  43  76 CALM      29.98R
CHALLIS        CLEAR     57  35  43 CALM      30.05R
$$

IDZ002-004-006-007-026-241400-
NORTHERN IDAHO


CITY           SKY/WX    TMP DP  RH WIND       PRES   REMARKS
LEWISTON       CLEAR     56  42  59 S7        30.13R
LOWELL           N/A     57  49  74 CALM      30.14R
COEUR D`ALENE  CLOUDY    52  45  76 CALM      30.10R
MULLAN PASS    CLOUDY    38  36  92 VRB6      30.13S WCI  33
$$



USA.gov is the U.S. government's official web portal to all federal, state and local government web resources and services.